Location: Fort Wayne
(41.1310°N, 85.1290°W)
Time: 11:41:12
(UTC-04:00)

ISS - Visible Passes

Search period start: 06 July 2015 00:00
Search period end: 16 July 2015 00:00
Orbit: 398 x 403 km, 51.6° (Epoch: 06 July)

Date Brightness Start Highest point End Pass type
(mag) Time Alt. Az. Time Alt. Az. Time Alt. Az.
10 Jul -0.5 05:40:36 10° SE 05:41:22 11° SE 05:42:17 10° ESE visible
12 Jul -1.6 05:27:22 10° S 05:30:02 24° SE 05:32:44 10° ENE visible
13 Jul -0.8 04:35:21 11° SSE 04:36:25 12° SE 04:37:54 10° ESE visible
14 Jul -3.0 05:16:14 16° SW 05:18:37 56° SE 05:21:49 10° ENE visible
15 Jul -2.0 04:24:29 26° SSE 04:24:52 27° SE 04:27:42 10° ENE visible
